545  
ASUS43 KGLD 191008  
RWRGLD  
 
GOODLAND FORECAST AREA HOURLY WEATHER ROUNDUP  
NATIONAL WEATHER SERVICE GOODLAND KS  
400 AM MDT FRI JUL 19 2019  
   
..OFFICIAL OBSERVATIONS
 
 
 
CITY SKY/WX TMP DP RH WIND PRES REMARKS
 
GOODLAND KS CLEAR 71 63 75 S13 29.80F  
HILL CITY KS CLEAR 79 68 69 VRB5 29.76S  
IMPERIAL NEB CLEAR 70 60 70 SW5 29.77S  
MCCOOK NEB CLEAR 74 65 73 SW5 29.74S  
AKRON CO CLEAR 72 51 47 SW13 29.87S  
BURLINGTON CO CLEAR 66 58 75 S8 29.84F  
LIMON CO CLEAR 59 49 69 NW3 29.93F  

 
   
..UNOFFICIAL OBSERVATIONS
 
 
 
CITY SKY/WX TMP DP RH WIND PRES REMARKS
 
COLBY KS CLEAR 73 61 64 S9 29.81S  
SHARON SPRINGS N/A 69 58 67 S9 N/A  
KIT CARSON CO N/A 64 56 76 CALM N/A  
YUMA CO FAIR 64 54 68 SW8 29.82  

 
 
 
CLICK HERE TO GO TO PREVIOUS BULLETINS.

The Nexlab KS Page
The Nexlab CO Page
The Nexlab NE Page Main Text Page